This is the latest recevied weather packets stored in our database for station/object OK1KZE-6. If no packets are shown the sender has not sent any weather packets the latest 10 day(s).
| Time | Temp. | Humidity | Pressure | Rain* | Wind** | Luminosity | Snow |
|---|---|---|---|---|---|---|---|
| 1778007608 | 17.22° C | 65% | 1006.4 hPa | - | - | - | - |
| 1778007308 | 16.67° C | 66% | 1006.5 hPa | - | - | - | - |
| 1778007008 | 16.67° C | 66% | 1006.3 hPa | - | - | - | - |
| 1778006707 | 16.67° C | 69% | 1006.6 hPa | - | - | - | - |
| 1778006408 | 16.67° C | 68% | 1006.6 hPa | - | - | - | - |
| 1778006108 | 16.67° C | 66% | 1006.6 hPa | - | - | - | - |
| 1778005809 | -1.11° C | 100% | 1006.5 hPa | - | - | - | - |
| 1778005508 | -1.11° C | 100% | 1006.4 hPa | - | - | - | - |
| 1778005208 | 17.78° C | 62% | 1006.4 hPa | - | - | - | - |
| 1778004908 | 17.78° C | 62% | 1006.1 hPa | - | - | - | - |
| 1778004608 | 17.78° C | 61% | 1006.4 hPa | - | - | - | - |
| 1778004307 | 17.78° C | 61% | 1006.4 hPa | - | - | - | - |
| 1778004007 | 17.78° C | 61% | 1006.5 hPa | - | - | - | - |
| 1778003707 | 17.78° C | 61% | 1006.7 hPa | - | - | - | - |
| 1778003407 | 17.78° C | 60% | 1006.7 hPa | - | - | - | - |
| 1778003107 | 17.78° C | 61% | 1006.7 hPa | - | - | - | - |
| 1778002807 | 17.78° C | 62% | 1007 hPa | - | - | - | - |
| 1778002508 | 17.78° C | 61% | 1007 hPa | - | - | - | - |
| 1778001908 | 17.78° C | 61% | 1006.9 hPa | - | - | - | - |
| 1778001607 | 17.78° C | 61% | 1007.2 hPa | - | - | - | - |
| 1778001307 | 18.33° C | 61% | 1007.3 hPa | - | - | - | - |
| 1778001008 | 18.33° C | 62% | 1007.1 hPa | - | - | - | - |
| 1778000707 | 18.33° C | 62% | 1007.4 hPa | - | - | - | - |
| 1778000408 | 18.33° C | 61% | 1007.4 hPa | - | - | - | - |
| 1778000109 | 18.33° C | 60% | 1007.5 hPa | - | - | - | - |
* Rain since midnight (hover to see other rain measurements)
** Current wind speed in m/s (hover to see current wind gust speed)